Regional Weather Roundup
Issued by NWS

Home | Current Version | Previous Version | Text Only | Print | Product List | Glossary On
Versions: 1 2 3 4 5 6 7 8 9 10 11 12 13 14 15 16 17 18 19 20 21 22 23 24 25 26 27 28 29 30 31 32 33 34 35 36 37 38 39 40 41 42 43 44 45 46 47 48 49 50
000
ASUS44 KMEG 051510
RWRTN
TENNESSEE HOURLY STATE WEATHER ROUNDUP
NATIONAL WEATHER SERVICE MEMPHIS TN
1000 AM CDT SUN JUL 05 2015

TNZ002-004-019-021-049-052-054-088>092-051600-
WEST TENNESSEE

CITY           SKY/WX    TMP DP  RH WIND       PRES   REMARKS
MEMPHIS INTL   MOSUNNY   78  70  76 S7        30.10R
NWS MEMPHIS      N/A     79 N/A N/A MISG        N/A
JACKSON        CLOUDY    78  70  76 CALM      30.08F
DYERSBURG        N/A    N/A N/A N/A MISG        N/A
PARIS          PTSUNNY   75  68  78 CALM      30.09F
LEXINGTON      CLOUDY    73  70  88 NE3       30.09S
$$

TNZ008-025-027-028-033-062-065-066-051600-
NORTH MIDDLE TENNESSEE

CITY           SKY/WX    TMP DP  RH WIND       PRES   REMARKS
NASHVILLE      CLOUDY    73  72  96 W5        30.10S FOG
CLARKSVILLE    MOSUNNY   77  70  79 W6        30.08F
SMYRNA         LGT RAIN  72  70  93 W6        30.10S
COOKEVILLE     PTSUNNY   73  72  94 CALM      30.09F
CROSSVILLE     LGT RAIN  70  65  84 VRB7      30.12S
$$

TNZ061-075-076-078-094-096-097-051600-
SOUTH MIDDLE TENNESSEE

CITY           SKY/WX    TMP DP  RH WIND       PRES   REMARKS
FAYETTEVILLE   CLOUDY    70  66  88 W6        30.11F
TULLAHOMA      CLOUDY    72  68  88 NW6       30.12F
WINCHESTER     CLOUDY    70  68  94 W6        30.11F
MCMINNVILLE    PTSUNNY   70  70 100 W5        30.11S
COLUMBIA       CLOUDY    73  72  94 CALM      30.09F
SHELBYVILLE    CLOUDY    73  72  94 W3          N/A
$$

TNZ017-018-042-046-047-051600-
NORTHEAST TENNESSEE

CITY           SKY/WX    TMP DP  RH WIND       PRES   REMARKS
TRI CITIES     MOSUNNY   77  68  73 E6        30.10F
ELIZABETHTON   SUNNY     75  66  73 CALM      30.10F
$$

TNZ012-013-036-069-073-074-051600-
CENTRAL EAST TENNESSEE

CITY           SKY/WX    TMP DP  RH WIND       PRES   REMARKS
KNOXVILLE      PTSUNNY   74  67  78 S15       30.07F
OAK RIDGE      LGT RAIN  70  68  93 VRB3      30.09S FOG
GATLINBURG     CLOUDY    72  66  83 NW5       30.08S
MORRISTOWN     MOSUNNY   73  70  88 W9        30.10S
$$

TNZ083-085-099-051600-
SOUTHEAST TENNESSEE

CITY           SKY/WX    TMP DP  RH WIND       PRES   REMARKS
CHATTANOOGA    CLOUDY    74  68  81 W7        30.09S
$$

SKY/WX REPORTED AS FAIR MEANS FEW OR NO CLOUDS BELOW
12 THOUSAND FEET.




USA.gov is the U.S. government's official web portal to all federal, state and local government web resources and services.